{"data":{"norad_id":63804,"intl_designator":"2025-092A","name":"STARLINK-33909","alt_names":[],"object_type":"PAYLOAD","status":"ACTIVE","operator":null,"country":"US","launch_date":"2025-05-04","launch_site_code":"AFETR","launch_vehicle":null,"mission":null,"orbit_class":"UNKNOWN","rcs_meters":null,"size_class":null,"mass_kg":null,"dimensions":null,"purposes":["comms"],"wikipedia_slug":null,"has_3d_model":false,"image_url":null,"decayed_at":null,"tle_current":{"epoch":"2026-09-20T02:36:55.764864Z","epoch_age_seconds":183528,"freshness":"STALE","line1":"1 63804U 25092A   26263.10897876  .00015405  00000+0  56801-3 0  9991","line2":"2 63804  43.0019 154.9949 0001613 258.6047 101.4624 15.27588008 78348","mean_motion":15.27588008,"eccentricity":0.0001613,"inclination_deg":43.0019,"raan_deg":154.9949,"arg_perigee_deg":258.6047,"mean_anomaly_deg":101.4624,"bstar":0.00056801,"rev_number":7834,"period_min":94.266254543679,"perigee_km":481.91841186202,"apogee_km":484.13182276106,"semimajor_km":6861.1621173115,"source":"CELESTRAK","updated_at":"2026-09-21T09:00:35.103677Z"}}}